sat.trackr.live / text

‹ back to catalog

STARLINK-1478

NORAD 45755 · 2020-038AB

PAYLOAD ACTIVE UNKNOWN

§ Identity

Operator
Country
US
Launch date
2020-06-13
Launch site
AFETR
Launch vehicle
Mass (kg)
RCS (m²)

Purposes: comms

External: N2YO · Heavens-Above · Gunter

§ Orbital elements

Epoch: 2026-09-13T00:00:02.000160Z

Period
90.74 min
Inclination
53.0411°
Eccentricity
0.0003916
Mean motion
15.86981467 rev/d
Perigee alt
308.1 km
Apogee alt
313.4 km
Semi-major
6,688.9 km
B*
3.5636e-4
RAAN
351.4941°
Arg perigee
331.2264°
Mean anomaly
238.4234°
Rev number
582

§ Raw data

STARLINK-14781 45755U 20038AB  26256.00002315  .00094356  00000+0  35636-3 0  99932 45755  53.0411 351.4941 0003916 331.2264 238.4234 15.86981467  5825

JSON: /api/v1/satellites/45755 · /tle

For live sub-satellite position, see the globe view (requires WebGL).

§ Visibility from observer

Set your observer location to see the next 7 days of passes ≥ 10°. The values pass through the URL so the page stays shareable.

No JS? Fill the form by hand. The geolocation button needs JavaScript.